Location: *
(28.2408°N, 53.4600°E)
Time: 05:57:13
(UTC+00:00)

Cosmos 1140 Rocket - Pass Details

Date: 22 September 2019
Orbit: 745 x 767 km, 74.1° (Epoch: 19 October)

Event Time Altitude Azimuth Distance (km) Brightness Sun altitude
Rises 16:02:57 0° 351° (N) 3,201 7.0 -22.6°
Reaches altitude 10° 16:05:23 10° 356° (N) 2,271 6.1 -23.1°
Enters shadow 16:09:39 48° 42° (NE) 973 3.8 -24.0°
